SCP
0 0 0 0 0 0 0 0 0 0 0 0 0 0 0 0 0 0 0 0 0 0 0 0 0 0 0 0 0 0 0 0 0 0 0 -0 -0 0 0 0 0 0 0 -0 0
0 0 0 0 0 0 0 -0 0 0 0 0 0 0 0 0 0 -0 0 0 0 0 0 0 0 0 0 0 0 0 0 0 0 0 0 0 0 0 0 0 0 0 0 -0 0
0 0 0 0 0 0 0 0 -0 0 0 0 0 0 0 0 0 0 0 -0 0 0 0 0 0 0 0 0 0 0 0 0 0 0 0 0 0 0 0 0 0 1 0 0 0
0 0 0 0 0 0 0 0 0 0 0 0 0 0 0 0 0 0 0 0 0 0 0 0 0 0 0 0 0 0 0 0 0 0 0 0 -0 -0 0 0 0 0 0 0 0
0 0 0 0 0 0 0 0 0 0 -0 0 0 0 0 0 -0 0 0 0 0 0 0 0 0 0 0 0 0 0 0 0 0 0 0 0 0 -0 0 0 0 0 0 0 0
0 0 0 0 0 0 0 0 0 0 0 0 0 0 0 0 0 0 0 0 0 0 0 0 0 0 0 0 0 0 0 0 0 0 0 -0 0 0 0 0 0 0 0 0 0
0 0 0 0 0 0 0 0 0 0 0 0 0 0 0 0 0 0 0 0 0 0 0 0 0 0 0 0 0 0 0 0 0 0 0 -0 0 0 0 0 0 0 0 0 0
0 0 0 0 0 0 0 0 0 0 0 0 0 0 0 0 0 -0 0 0 0 -0 0 -0 -0 0 0 0 0 0 0 0 0 0 0 0 0 0 0 0 0 0 0 0 0
0 0 0 -0 -0 0 0 0 0 -0 0 0 0 0 0 0 0 0 -0 0 0 -0 0 0 0 0 0 0 0 0 0 0 0 0 0 0 0 0 0 0 0 0 0 0 0
0 0 -0 -0 -0 -0 -0 0 0 0 0 0 0 0 -0 0 -0 0 0 0 0 0 0 0 0 0 0 0 0 0 0 0 0 0 0 0 0 0 0 0 0 0 0 0 0
0 -0 -0 -0 -0 0 0 0 0 0 0 0 0 0 0 -0 0 0 0 0 -0 0 0 0 0 0 0 0 0 0 0 0 0 0 0 0 0 0 0 0 0 0 0 0 0
0 -0 -0 -0 -0 -0 0 0 0 0 0 0 -0 -0 -0 -0 0 0 0 0 0 0 0 0 0 0 0 0 0 0 0 0 0 -0 0 0 0 0 0 0 0 0 0 0 0
-0 -0 -0 -0 -0 0 0 0 0 0 0 0 0 0 -0 -0 -0 0 0 0 0 0 0 0 0 0 0 0 0 0 0 0 0 0 -0 0 0 0 0 0 0 0 0 0 0
-0 -0 -0 -0 0 0 0 0 0 0 0 0 0 0 -0 0 0 0 0 0 0 0 0 0 0 0 -0 0 0 0 0 0 0 0 0 0 0 0 0 0 0 0 0 0 0
-0 -0 -0 0 0 0 -0 0 0 0 0 0 0 0 0 0 -0 0 0 0 0 0 0 -0 -0 0 0 0 0 0 0 0 0 0 0 0 0 0 0 0 0 0 0 0 0
-0 -0 -0 0 0 0 -0 0 0 0 0 0 0 0 0 0 0 0 0 0 0 0 0 -0 0 0 0 0 0 0 0 0 0 0 0 0 0 0 0 0 0 0 0 0 0
-0 -0 -0 0 0 0 0 0 0 0 0 0 0 0 0 0 0 0 0 0 0 0 0 0 0 0 0 0 0 0 0 0 0 0 0 0 0 0 0 0 0 0 0 0 0
-0 -0 0 0 0 0 0 0 0 0 0 0 0 0 0 0 0 0 0 0 0 0 0 0 0 0 0 0 0 0 0 0 0 0 0 0 0 0 0 0 0 0 0 0 0
0 0 0 -0 -0 0 0 0 0 0 0 0 -0 0 0 0 0 0 0 0 0 0 0 0 0 0 0 0 0 0 0 0 0 0 0 0 0 0 0 0 0 0 0 0 0
0 0 0 -0 0 0 0 0 0 0 0 0 0 0 0 0 0 0 0 0 0 0 0 0 0 0 0 0 0 0 0 0 0 0 0 0 0 0 0 0 0 0 0 0 0
0 0 -0 -0 0 0 0 0 0 0 0 0 0 0 0 0 0 0 0 0 0 0 0 0 0 0 0 -0 0 0 0 0 0 0 0 0 0 -0 -0 0 0 0 0 0 0
-0 0 -0 0 0 0 0 0 0 0 0 0 0 0 0 0 0 0 0 0 0 0 0 0 0 0 0 0 0 0 0 0 0 0 0 0 0 -0 0 0 0 0 0 0 0
0 0 -0 0 0 0 0 0 0 0 0 0 0 0 0 0 0 0 0 0 0 0 0 0 0 0 0 0 0 0 -0 0 0 0 0 0 0 0 0 0 0 0 0 0 0
0 0 0 0 0 0 0 0 0 0 0 0 0 0 0 0 0 0 0 0 0 0 0 0 0 0 0 0 0 0 0 0 0 0 0 0 0 0 -0 0 0 0 0 0 0
0 0 0 0 0 0 0 0 0 0 0 0 0 0 0 0 0 0 0 0 0 0 -0 0 0 0 0 0 0 0 0 0 0 0 0 -0 0 0 0 0 0 0 0 0 0
0 0 0 0 0 0 0 0 0 0 0 0 0 0 0 0 0 -0 0 -0 -0 0 0 0 0 0 0 0 0 0 0 0 0 0 0 0 0 -0 0 0 0 0 0 0 0
0 0 0 0 0 0 0 0 0 0 0 0 0 0 0 0 0 0 0 0 0 0 0 0 0 0 0 0 0 0 0 0 0 0 0 0 0 0 0 -0 0 0 0 0 0
Wind_Speed_500mb
41 42 43 42 42 41 40 37 32 31 31 31 28 25 24 28 32 40 55 47 28 26 13 17 17 25 24 34 36 32 4 14 19 27 36 50 31 32 32 78 33 22 73 81 68
46 46 46 46 46 45 43 39 33 30 32 29 27 24 23 26 34 57 57 40 38 21 37 21 27 29 31 27 25 19 10 26 20 36 34 45 53 17 30 39 57 60 70 77 70
48 48 48 49 49 48 45 36 30 28 29 25 21 21 20 21 34 47 25 45 35 27 31 26 28 38 46 46 49 22 24 21 34 64 51 54 45 38 44 13 66 81 79 75 73
50 50 49 49 48 47 40 33 24 24 26 23 17 17 18 16 11 9 3 20 31 38 31 36 38 47 18 19 54 27 38 43 51 71 56 37 40 32 15 38 82 87 81 73 66
52 51 50 48 47 44 35 26 20 23 25 21 15 14 17 19 50 10 10 8 35 42 47 40 42 44 17 17 40 22 24 48 53 68 69 68 16 26 35 76 79 82 77 69 60
55 54 51 49 45 41 31 26 23 23 23 18 14 15 18 20 5 19 27 20 30 48 47 44 34 43 42 31 24 33 43 46 54 54 67 28 15 21 54 32 78 83 75 67 62
59 57 54 49 43 38 30 26 22 20 19 16 13 16 24 46 4 13 15 17 26 33 38 39 40 51 45 18 48 49 19 30 32 45 29 36 18 17 57 24 81 77 69 61 53
61 59 55 50 42 37 29 26 23 17 15 16 14 17 24 14 13 38 38 26 15 31 39 32 42 47 59 39 28 14 13 17 21 15 26 17 24 16 57 46 65 77 69 60 57
64 62 55 48 40 34 27 27 25 20 15 17 16 18 27 8 25 31 33 43 31 33 40 41 22 15 22 8 12 13 19 18 17 20 12 18 13 21 34 52 57 69 68 56 51
70 65 54 46 36 27 20 35 22 21 11 14 20 17 30 25 31 26 28 32 38 31 27 27 8 5 10 5 25 18 12 16 17 14 18 20 18 16 36 30 53 72 73 65 61
73 69 56 39 28 14 26 35 30 5 15 19 19 26 47 19 10 19 27 31 38 32 16 34 7 16 21 24 23 16 24 21 22 30 25 22 18 31 47 20 29 55 67 78 68
74 70 58 32 11 13 14 25 29 35 42 46 67 80 74 61 62 23 28 34 31 18 12 14 24 21 27 32 33 33 29 30 22 19 28 36 50 23 33 26 43 50 60 76 72
72 69 56 28 6 18 27 26 31 39 15 41 56 57 63 58 65 33 37 39 20 23 25 21 23 31 38 34 35 29 32 23 27 34 16 13 39 39 34 33 69 51 80 78 79
69 67 51 28 3 22 22 33 31 33 7 15 13 20 34 19 14 39 45 42 22 30 26 27 28 36 35 39 30 25 20 26 32 13 14 10 12 13 15 16 10 26 71 76 91
68 64 39 20 20 23 44 43 28 18 9 10 13 20 16 21 15 27 45 46 27 27 21 37 29 34 33 30 21 18 17 15 12 11 9 31 2 16 15 16 25 21 36 88 90
67 54 26 12 25 41 45 24 23 2 12 8 14 13 13 30 31 22 32 35 38 19 24 31 49 33 32 32 24 14 10 16 12 5 12 28 13 16 11 24 20 40 62 64 86
65 35 15 18 37 44 36 30 2 7 27 24 25 28 19 17 28 23 12 17 15 8 13 24 36 37 37 27 23 9 6 6 8 6 17 15 18 28 15 19 19 25 62 76 85
61 15 11 21 35 44 25 6 6 20 32 31 33 32 13 21 26 40 26 20 18 22 21 19 24 32 40 30 17 15 16 12 15 8 16 13 14 30 28 51 61 5 43 75 89
49 10 14 26 40 31 17 3 9 18 27 31 30 14 18 43 26 25 33 34 24 48 21 11 41 32 35 35 27 16 22 17 10 9 7 9 17 33 43 25 45 20 36 44 50
49 22 23 38 39 11 3 8 12 29 23 26 21 19 26 30 27 30 19 28 28 35 33 22 15 15 28 22 28 13 20 7 2 16 19 15 17 18 27 26 18 19 32 42 40
32 18 46 50 26 3 3 9 15 34 39 19 21 18 25 26 33 26 13 20 51 41 32 18 10 13 16 7 6 6 25 13 10 10 12 6 12 2 7 7 11 15 43 49 38
26 10 47 53 17 18 13 19 26 32 34 19 19 21 22 28 10 16 17 28 65 56 26 30 9 8 19 41 31 24 7 16 8 15 9 15 22 17 9 2 37 24 43 43 31
42 14 39 49 9 11 22 25 30 24 25 23 20 18 19 16 13 26 27 45 59 36 24 23 11 11 19 12 14 8 8 14 7 15 18 7 13 4 11 20 34 36 58 28 32
19 9 24 20 32 11 12 14 14 32 19 26 17 18 14 14 18 20 29 26 54 46 34 30 9 11 13 28 30 30 36 18 7 6 8 18 21 33 18 16 21 49 29 40 47
24 12 16 9 18 26 16 16 14 14 21 22 12 18 16 12 17 18 28 27 34 28 15 6 9 21 33 40 38 39 40 26 20 10 12 26 27 29 32 14 37 40 32 17 18
16 16 27 46 31 25 16 11 15 16 15 13 8 17 12 12 15 16 19 15 11 17 20 9 13 23 39 37 36 44 39 31 24 24 27 16 33 2 12 52 62 55 35 28 31
21 30 28 20 25 19 13 18 20 20 18 30 24 14 20 22 22 27 33 39 29 17 20 20 18 21 37 32 34 27 28 24 24 15 21 20 27 11 13 9 6 35 40 29 15
Wind_Direction_500mb
355 350 347 345 340 335 329 319 308 306 307 304 292 276 266 263 258 255 247 237 239 230 242 222 244 239 229 252 248 241 245 264 264 275 281 308 328 178 143 126 139 160 150 150 150
351 348 343 342 340 336 331 324 312 306 307 302 291 272 264 271 273 260 250 231 214 215 232 236 231 233 236 246 240 209 204 241 243 268 284 300 327 149 119 115 117 125 141 150 156
349 346 343 341 339 337 332 327 317 312 313 306 287 267 259 276 296 282 267 233 205 224 233 230 244 244 227 239 242 236 238 260 269 276 293 301 312 335 129 113 128 135 146 156 163
348 346 343 339 338 336 334 330 321 318 320 312 286 260 251 255 245 3 275 204 201 218 234 240 238 261 241 229 241 248 246 248 262 271 284 287 302 320 187 152 143 145 151 159 169
349 345 342 338 337 337 334 331 319 315 317 311 286 251 246 251 249 235 327 178 208 218 230 225 231 251 243 247 247 234 245 251 251 275 272 277 285 293 310 158 158 155 156 164 172
350 346 341 338 336 334 331 327 317 313 309 301 283 248 240 255 309 253 234 236 222 219 225 218 227 237 261 246 247 260 249 256 254 231 261 277 268 290 285 209 155 156 161 167 176
350 347 342 338 334 330 327 324 319 311 304 286 280 254 246 247 188 230 248 264 229 219 216 222 228 247 248 258 269 268 275 257 254 244 249 264 284 266 272 185 150 157 162 171 179
348 347 343 338 334 328 323 321 317 304 288 276 270 256 258 267 241 226 238 225 265 208 224 226 231 240 252 272 293 289 291 257 257 255 234 205 249 259 269 168 151 158 166 177 185
347 345 345 340 335 328 326 318 309 303 289 270 263 246 270 314 244 230 222 232 234 234 234 249 267 279 253 285 310 267 244 266 272 257 241 183 229 258 265 163 157 160 169 176 182
349 346 345 341 338 333 349 334 323 291 285 254 238 268 259 249 239 213 228 223 229 228 233 240 251 292 307 214 229 243 259 247 251 261 259 251 232 246 243 223 167 165 172 182 187
348 347 346 344 346 356 25 15 1 0 220 231 232 222 287 274 175 208 223 222 230 242 202 232 176 221 238 246 248 249 236 254 226 231 223 264 245 218 236 188 225 174 176 184 188
349 347 346 349 24 35 1 18 357 321 295 271 253 255 257 270 282 214 216 219 218 239 237 233 231 224 234 243 239 247 255 265 283 268 217 224 232 240 207 223 203 211 189 188 192
349 346 344 352 357 15 358 360 344 333 286 291 250 239 243 239 251 233 207 230 218 220 238 231 234 233 233 247 249 239 231 248 249 274 267 225 241 241 206 214 225 217 208 199 195
349 343 347 360 354 358 352 340 340 333 303 274 201 217 238 197 279 241 238 210 234 234 229 247 252 253 251 239 234 253 257 245 240 248 245 157 262 244 188 196 225 214 202 200 202
348 343 350 352 4 2 332 325 326 321 321 181 122 141 172 170 241 207 219 227 218 231 225 254 254 254 261 263 246 241 275 271 268 248 293 287 95 257 179 208 228 247 225 208 206
346 343 357 25 19 343 324 335 324 291 249 220 144 192 203 209 234 257 177 216 255 225 254 266 276 267 271 279 254 243 250 293 290 216 248 246 186 253 229 208 218 229 239 220 204
346 348 13 26 1 338 334 338 7 229 338 357 356 348 351 340 330 319 209 194 201 243 267 270 264 275 276 286 291 183 156 302 311 281 225 235 251 243 259 238 209 221 236 226 209
348 358 21 12 337 339 355 341 254 307 25 346 343 321 315 319 334 338 310 296 215 208 229 248 269 242 260 254 231 238 175 182 219 219 256 274 258 257 237 261 269 292 268 212 204
355 10 12 340 320 346 343 300 14 17 354 346 330 337 6 348 357 352 345 360 42 44 1 307 265 261 255 252 244 243 246 210 184 267 296 249 277 262 253 250 243 144 127 132 141
351 355 6 337 331 348 309 250 64 0 10 3 15 5 344 345 346 356 324 20 5 17 1 338 304 299 300 307 269 188 235 235 264 201 245 258 267 265 312 205 151 126 122 116 117
357 332 345 333 330 275 295 43 18 10 34 19 358 334 3 3 344 343 342 356 19 356 348 15 341 323 326 248 303 262 271 212 147 178 196 227 262 119 343 55 358 143 133 126 123
8 337 354 337 37 3 27 3 330 30 36 13 25 10 12 334 316 326 322 1 22 10 4 7 280 272 266 293 303 305 286 349 215 255 204 194 249 276 348 146 231 164 130 138 141
342 299 357 26 43 5 355 342 0 23 20 22 8 12 352 345 336 355 348 335 6 8 19 354 332 329 330 331 326 298 49 28 123 12 297 177 257 162 355 6 71 64 143 145 139
341 329 352 355 18 13 341 325 321 29 22 12 359 344 352 352 344 322 332 351 347 344 7 4 314 328 304 316 322 312 317 345 122 143 294 271 315 311 40 11 10 37 61 66 50
8 14 19 321 331 315 299 296 348 0 9 358 348 344 359 339 319 320 329 331 329 327 1 76 287 317 324 323 318 306 305 315 300 251 166 274 293 298 348 27 4 35 24 92 92
25 352 326 302 316 294 296 31 1 346 341 307 304 333 323 296 281 312 326 324 312 314 309 283 262 301 301 310 308 306 304 283 283 293 297 231 269 334 350 360 349 352 3 35 45
6 348 324 295 305 314 2 352 324 302 297 339 338 318 294 287 328 329 315 297 280 261 265 272 268 275 276 291 306 303 281 301 297 290 302 281 276 284 315 117 265 324 331 346 38
Wind_Speed_850mb
41 42 43 42 42 41 40 37 32 31 31 31 28 25 24 28 32 40 55 47 28 26 13 17 17 25 24 34 36 32 4 14 19 27 36 50 31 32 32 78 33 22 73 81 68
46 46 46 46 46 45 43 39 33 30 32 29 27 24 23 26 34 57 57 40 38 21 37 21 27 29 31 27 25 19 10 26 20 36 34 45 53 17 30 39 57 60 70 77 70
48 48 48 49 49 48 45 36 30 28 29 25 21 21 20 21 34 47 25 45 35 27 31 26 28 38 46 46 49 22 24 21 34 64 51 54 45 38 44 13 66 81 79 75 73
50 50 49 49 48 47 40 33 24 24 26 23 17 17 18 16 11 9 3 20 31 38 31 36 38 47 18 19 54 27 38 43 51 71 56 37 40 32 15 38 82 87 81 73 66
52 51 50 48 47 44 35 26 20 23 25 21 15 14 17 19 50 10 10 8 35 42 47 40 42 44 17 17 40 22 24 48 53 68 69 68 16 26 35 76 79 82 77 69 60
55 54 51 49 45 41 31 26 23 23 23 18 14 15 18 20 5 19 27 20 30 48 47 44 34 43 42 31 24 33 43 46 54 54 67 28 15 21 54 32 78 83 75 67 62
59 57 54 49 43 38 30 26 22 20 19 16 13 16 24 46 4 13 15 17 26 33 38 39 40 51 45 18 48 49 19 30 32 45 29 36 18 17 57 24 81 77 69 61 53
61 59 55 50 42 37 29 26 23 17 15 16 14 17 24 14 13 38 38 26 15 31 39 32 42 47 59 39 28 14 13 17 21 15 26 17 24 16 57 46 65 77 69 60 57
64 62 55 48 40 34 27 27 25 20 15 17 16 18 27 8 25 31 33 43 31 33 40 41 22 15 22 8 12 13 19 18 17 20 12 18 13 21 34 52 57 69 68 56 51
70 65 54 46 36 27 20 35 22 21 11 14 20 17 30 25 31 26 28 32 38 31 27 27 8 5 10 5 25 18 12 16 17 14 18 20 18 16 36 30 53 72 73 65 61
73 69 56 39 28 14 26 35 30 5 15 19 19 26 47 19 10 19 27 31 38 32 16 34 7 16 21 24 23 16 24 21 22 30 25 22 18 31 47 20 29 55 67 78 68
74 70 58 32 11 13 14 25 29 35 42 46 67 80 74 61 62 23 28 34 31 18 12 14 24 21 27 32 33 33 29 30 22 19 28 36 50 23 33 26 43 50 60 76 72
72 69 56 28 6 18 27 26 31 39 15 41 56 57 63 58 65 33 37 39 20 23 25 21 23 31 38 34 35 29 32 23 27 34 16 13 39 39 34 33 69 51 80 78 79
69 67 51 28 3 22 22 33 31 33 7 15 13 20 34 19 14 39 45 42 22 30 26 27 28 36 35 39 30 25 20 26 32 13 14 10 12 13 15 16 10 26 71 76 91
68 64 39 20 20 23 44 43 28 18 9 10 13 20 16 21 15 27 45 46 27 27 21 37 29 34 33 30 21 18 17 15 12 11 9 31 2 16 15 16 25 21 36 88 90
67 54 26 12 25 41 45 24 23 2 12 8 14 13 13 30 31 22 32 35 38 19 24 31 49 33 32 32 24 14 10 16 12 5 12 28 13 16 11 24 20 40 62 64 86
65 35 15 18 37 44 36 30 2 7 27 24 25 28 19 17 28 23 12 17 15 8 13 24 36 37 37 27 23 9 6 6 8 6 17 15 18 28 15 19 19 25 62 76 85
61 15 11 21 35 44 25 6 6 20 32 31 33 32 13 21 26 40 26 20 18 22 21 19 24 32 40 30 17 15 16 12 15 8 16 13 14 30 28 51 61 5 43 75 89
49 10 14 26 40 31 17 3 9 18 27 31 30 14 18 43 26 25 33 34 24 48 21 11 41 32 35 35 27 16 22 17 10 9 7 9 17 33 43 25 45 20 36 44 50
49 22 23 38 39 11 3 8 12 29 23 26 21 19 26 30 27 30 19 28 28 35 33 22 15 15 28 22 28 13 20 7 2 16 19 15 17 18 27 26 18 19 32 42 40
32 18 46 50 26 3 3 9 15 34 39 19 21 18 25 26 33 26 13 20 51 41 32 18 10 13 16 7 6 6 25 13 10 10 12 6 12 2 7 7 11 15 43 49 38
26 10 47 53 17 18 13 19 26 32 34 19 19 21 22 28 10 16 17 28 65 56 26 30 9 8 19 41 31 24 7 16 8 15 9 15 22 17 9 2 37 24 43 43 31
42 14 39 49 9 11 22 25 30 24 25 23 20 18 19 16 13 26 27 45 59 36 24 23 11 11 19 12 14 8 8 14 7 15 18 7 13 4 11 20 34 36 58 28 32
19 9 24 20 32 11 12 14 14 32 19 26 17 18 14 14 18 20 29 26 54 46 34 30 9 11 13 28 30 30 36 18 7 6 8 18 21 33 18 16 21 49 29 40 47
24 12 16 9 18 26 16 16 14 14 21 22 12 18 16 12 17 18 28 27 34 28 15 6 9 21 33 40 38 39 40 26 20 10 12 26 27 29 32 14 37 40 32 17 18
16 16 27 46 31 25 16 11 15 16 15 13 8 17 12 12 15 16 19 15 11 17 20 9 13 23 39 37 36 44 39 31 24 24 27 16 33 2 12 52 62 55 35 28 31
21 30 28 20 25 19 13 18 20 20 18 30 24 14 20 22 22 27 33 39 29 17 20 20 18 21 37 32 34 27 28 24 24 15 21 20 27 11 13 9 6 35 40 29 15
Wind_Direction_850mb
355 350 347 345 340 335 329 319 308 306 307 304 292 276 266 263 258 255 247 237 239 230 242 222 244 239 229 252 248 241 245 264 264 275 281 308 328 178 143 126 139 160 150 150 150
351 348 343 342 340 336 331 324 312 306 307 302 291 272 264 271 273 260 250 231 214 215 232 236 231 233 236 246 240 209 204 241 243 268 284 300 327 149 119 115 117 125 141 150 156
349 346 343 341 339 337 332 327 317 312 313 306 287 267 259 276 296 282 267 233 205 224 233 230 244 244 227 239 242 236 238 260 269 276 293 301 312 335 129 113 128 135 146 156 163
348 346 343 339 338 336 334 330 321 318 320 312 286 260 251 255 245 3 275 204 201 218 234 240 238 261 241 229 241 248 246 248 262 271 284 287 302 320 187 152 143 145 151 159 169
349 345 342 338 337 337 334 331 319 315 317 311 286 251 246 251 249 235 327 178 208 218 230 225 231 251 243 247 247 234 245 251 251 275 272 277 285 293 310 158 158 155 156 164 172
350 346 341 338 336 334 331 327 317 313 309 301 283 248 240 255 309 253 234 236 222 219 225 218 227 237 261 246 247 260 249 256 254 231 261 277 268 290 285 209 155 156 161 167 176
350 347 342 338 334 330 327 324 319 311 304 286 280 254 246 247 188 230 248 264 229 219 216 222 228 247 248 258 269 268 275 257 254 244 249 264 284 266 272 185 150 157 162 171 179
348 347 343 338 334 328 323 321 317 304 288 276 270 256 258 267 241 226 238 225 265 208 224 226 231 240 252 272 293 289 291 257 257 255 234 205 249 259 269 168 151 158 166 177 185
347 345 345 340 335 328 326 318 309 303 289 270 263 246 270 314 244 230 222 232 234 234 234 249 267 279 253 285 310 267 244 266 272 257 241 183 229 258 265 163 157 160 169 176 182
349 346 345 341 338 333 349 334 323 291 285 254 238 268 259 249 239 213 228 223 229 228 233 240 251 292 307 214 229 243 259 247 251 261 259 251 232 246 243 223 167 165 172 182 187
348 347 346 344 346 356 25 15 1 0 220 231 232 222 287 274 175 208 223 222 230 242 202 232 176 221 238 246 248 249 236 254 226 231 223 264 245 218 236 188 225 174 176 184 188
349 347 346 349 24 35 1 18 357 321 295 271 253 255 257 270 282 214 216 219 218 239 237 233 231 224 234 243 239 247 255 265 283 268 217 224 232 240 207 223 203 211 189 188 192
349 346 344 352 357 15 358 360 344 333 286 291 250 239 243 239 251 233 207 230 218 220 238 231 234 233 233 247 249 239 231 248 249 274 267 225 241 241 206 214 225 217 208 199 195
349 343 347 360 354 358 352 340 340 333 303 274 201 217 238 197 279 241 238 210 234 234 229 247 252 253 251 239 234 253 257 245 240 248 245 157 262 244 188 196 225 214 202 200 202
348 343 350 352 4 2 332 325 326 321 321 181 122 141 172 170 241 207 219 227 218 231 225 254 254 254 261 263 246 241 275 271 268 248 293 287 95 257 179 208 228 247 225 208 206
346 343 357 25 19 343 324 335 324 291 249 220 144 192 203 209 234 257 177 216 255 225 254 266 276 267 271 279 254 243 250 293 290 216 248 246 186 253 229 208 218 229 239 220 204
346 348 13 26 1 338 334 338 7 229 338 357 356 348 351 340 330 319 209 194 201 243 267 270 264 275 276 286 291 183 156 302 311 281 225 235 251 243 259 238 209 221 236 226 209
348 358 21 12 337 339 355 341 254 307 25 346 343 321 315 319 334 338 310 296 215 208 229 248 269 242 260 254 231 238 175 182 219 219 256 274 258 257 237 261 269 292 268 212 204
355 10 12 340 320 346 343 300 14 17 354 346 330 337 6 348 357 352 345 360 42 44 1 307 265 261 255 252 244 243 246 210 184 267 296 249 277 262 253 250 243 144 127 132 141
351 355 6 337 331 348 309 250 64 0 10 3 15 5 344 345 346 356 324 20 5 17 1 338 304 299 300 307 269 188 235 235 264 201 245 258 267 265 312 205 151 126 122 116 117
357 332 345 333 330 275 295 43 18 10 34 19 358 334 3 3 344 343 342 356 19 356 348 15 341 323 326 248 303 262 271 212 147 178 196 227 262 119 343 55 358 143 133 126 123
8 337 354 337 37 3 27 3 330 30 36 13 25 10 12 334 316 326 322 1 22 10 4 7 280 272 266 293 303 305 286 349 215 255 204 194 249 276 348 146 231 164 130 138 141
342 299 357 26 43 5 355 342 0 23 20 22 8 12 352 345 336 355 348 335 6 8 19 354 332 329 330 331 326 298 49 28 123 12 297 177 257 162 355 6 71 64 143 145 139
341 329 352 355 18 13 341 325 321 29 22 12 359 344 352 352 344 322 332 351 347 344 7 4 314 328 304 316 322 312 317 345 122 143 294 271 315 311 40 11 10 37 61 66 50
8 14 19 321 331 315 299 296 348 0 9 358 348 344 359 339 319 320 329 331 329 327 1 76 287 317 324 323 318 306 305 315 300 251 166 274 293 298 348 27 4 35 24 92 92
25 352 326 302 316 294 296 31 1 346 341 307 304 333 323 296 281 312 326 324 312 314 309 283 262 301 301 310 308 306 304 283 283 293 297 231 269 334 350 360 349 352 3 35 45
6 348 324 295 305 314 2 352 324 302 297 339 338 318 294 287 328 329 315 297 280 261 265 272 268 275 276 291 306 303 281 301 297 290 302 281 276 284 315 117 265 324 331 346 38